Time,TemperatureF,DewpointF,PressureIn,WindDirection,WindDirectionDegrees,WindSpeedMPH,WindSpeedGustMPH,Humidity,HourlyPrecipIn,Conditions,Clouds,dailyrainin,SoftwareType,DateUTC
2013-04-29 00:02:00,55.0,52.0,29.84,WSW,241,3.0,7.0,89,0.00,,,0.00,,2013-04-29 05:02:00,
2013-04-29 00:12:00,55.0,52.0,29.84,WSW,241,3.0,7.0,89,0.00,,,0.00,,2013-04-29 05:12:00,
2013-04-29 00:22:00,55.0,52.0,29.85,WSW,240,1.0,6.0,88,0.00,,,0.00,,2013-04-29 05:22:00,
2013-04-29 00:32:00,55.0,52.0,29.85,SSW,211,1.0,7.0,88,0.00,,,0.00,,2013-04-29 05:32:00,
2013-04-29 00:42:00,55.0,52.0,29.85,SSW,211,1.0,7.0,88,0.00,,,0.00,,2013-04-29 05:42:00,
2013-04-29 00:52:00,55.0,52.0,29.85,SW,226,2.0,6.0,88,0.00,,,0.00,,2013-04-29 05:52:00,
2013-04-29 01:02:00,55.0,52.0,29.86,SW,221,1.0,5.0,88,0.00,,,0.00,,2013-04-29 06:02:00,
2013-04-29 01:11:00,55.0,52.0,29.86,SW,221,1.0,5.0,88,0.00,,,0.00,,2013-04-29 06:11:00,
2013-04-29 01:21:00,54.0,51.0,29.86,SSW,205,2.0,5.0,89,0.00,,,0.00,,2013-04-29 06:21:00,
2013-04-29 01:32:00,54.0,51.0,29.85,South,188,3.0,6.0,90,0.00,,,0.00,,2013-04-29 06:32:00,
2013-04-29 01:42:00,54.0,51.0,29.85,South,188,3.0,6.0,90,0.00,,,0.00,,2013-04-29 06:42:00,
2013-04-29 01:52:00,54.0,51.0,29.85,SW,224,1.0,6.0,90,0.00,,,0.00,,2013-04-29 06:52:00,
2013-04-29 02:01:00,53.0,50.0,29.85,WSW,248,3.0,9.0,91,0.00,,,0.00,,2013-04-29 07:01:00,
2013-04-29 02:11:00,53.0,50.0,29.85,WSW,248,3.0,9.0,91,0.00,,,0.00,,2013-04-29 07:11:00,
2013-04-29 02:21:00,53.0,50.0,29.85,SW,235,2.0,7.0,91,0.00,,,0.00,,2013-04-29 07:21:00,
2013-04-29 02:32:00,53.0,50.0,29.85,WSW,239,1.0,5.0,91,0.00,,,0.00,,2013-04-29 07:32:00,
2013-04-29 02:41:00,53.0,50.0,29.85,WSW,239,1.0,5.0,91,0.00,,,0.00,,2013-04-29 07:41:00,
2013-04-29 02:52:00,52.0,50.0,29.85,WSW,253,2.0,6.0,92,0.00,,,0.00,,2013-04-29 07:52:00,
2013-04-29 03:03:00,52.0,50.0,29.85,SSW,213,2.0,5.0,92,0.00,,,0.00,,2013-04-29 08:03:00,
2013-04-29 03:11:00,52.0,50.0,29.85,SSW,213,2.0,5.0,92,0.00,,,0.00,,2013-04-29 08:11:00,
2013-04-29 03:21:00,52.0,50.0,29.85,WSW,248,2.0,5.0,92,0.00,,,0.00,,2013-04-29 08:21:00,
2013-04-29 03:32:00,52.0,50.0,29.85,SW,222,2.0,5.0,92,0.00,,,0.00,,2013-04-29 08:32:00,
2013-04-29 03:42:00,52.0,50.0,29.85,SW,222,2.0,5.0,92,0.00,,,0.00,,2013-04-29 08:42:00,
2013-04-29 03:52:00,51.0,49.0,29.85,SW,217,1.0,6.0,92,0.00,,,0.00,,2013-04-29 08:52:00,
2013-04-29 04:01:00,51.0,49.0,29.85,WSW,245,2.0,5.0,93,0.00,,,0.00,,2013-04-29 09:01:00,
2013-04-29 04:12:00,51.0,49.0,29.85,WSW,245,2.0,5.0,93,0.00,,,0.00,,2013-04-29 09:12:00,
2013-04-29 04:21:00,50.0,48.0,29.85,SW,234,1.0,4.0,93,0.00,,,0.00,,2013-04-29 09:21:00,
2013-04-29 04:32:00,50.0,48.0,29.85,SW,229,2.0,5.0,93,0.00,,,0.00,,2013-04-29 09:32:00,
2013-04-29 04:42:00,50.0,48.0,29.85,SW,229,2.0,5.0,93,0.00,,,0.00,,2013-04-29 09:42:00,
2013-04-29 04:53:00,50.0,48.0,29.86,SW,234,1.0,5.0,93,0.00,,,0.00,,2013-04-29 09:53:00,
2013-04-29 05:02:00,49.0,47.0,29.86,SW,234,1.0,4.0,93,0.00,,,0.00,,2013-04-29 10:02:00,
2013-04-29 05:12:00,49.0,47.0,29.86,SW,234,1.0,4.0,93,0.00,,,0.00,,2013-04-29 10:12:00,
2013-04-29 05:23:00,49.0,47.0,29.87,WSW,241,3.0,6.0,94,0.00,,,0.00,,2013-04-29 10:23:00,
2013-04-29 05:32:00,50.0,48.0,29.87,SW,222,2.0,6.0,93,0.00,,,0.00,,2013-04-29 10:32:00,
2013-04-29 05:42:00,50.0,48.0,29.87,SW,222,2.0,6.0,93,0.00,,,0.00,,2013-04-29 10:42:00,
2013-04-29 05:52:00,50.0,48.0,29.88,SW,223,2.0,5.0,92,0.00,,,0.00,,2013-04-29 10:52:00,
2013-04-29 06:02:00,50.0,48.0,29.88,West,260,1.0,4.0,92,0.00,,,0.00,,2013-04-29 11:02:00,
2013-04-29 06:12:00,50.0,48.0,29.88,West,260,1.0,4.0,92,0.00,,,0.00,,2013-04-29 11:12:00,
2013-04-29 06:21:00,51.0,49.0,29.88,West,269,2.0,7.0,92,0.00,,,0.00,,2013-04-29 11:21:00,
2013-04-29 06:32:00,51.0,48.0,29.89,SW,221,2.0,4.0,91,0.00,,,0.00,,2013-04-29 11:32:00,
2013-04-29 06:42:00,51.0,48.0,29.89,SW,221,2.0,4.0,91,0.00,,,0.00,,2013-04-29 11:42:00,
2013-04-29 06:52:00,50.0,47.0,29.89,SW,221,1.0,4.0,91,0.00,,,0.00,,2013-04-29 11:52:00,
2013-04-29 07:01:00,50.0,47.0,29.89,SW,227,1.0,7.0,91,0.00,,,0.00,,2013-04-29 12:01:00,
2013-04-29 07:12:00,50.0,47.0,29.89,SW,227,1.0,7.0,91,0.00,,,0.00,,2013-04-29 12:12:00,
2013-04-29 07:22:00,50.0,48.0,29.89,South,171,1.0,6.0,92,0.00,,,0.00,,2013-04-29 12:22:00,
2013-04-29 07:31:00,51.0,48.0,29.89,SSW,207,1.0,6.0,91,0.00,,,0.00,,2013-04-29 12:31:00,
2013-04-29 07:42:00,51.0,48.0,29.89,SSW,207,1.0,6.0,91,0.00,,,0.00,,2013-04-29 12:42:00,
2013-04-29 07:52:00,51.0,49.0,29.90,SSW,207,1.0,6.0,92,0.00,,,0.00,,2013-04-29 12:52:00,
2013-04-29 08:01:00,52.0,49.0,29.89,SSW,198,3.0,8.0,91,0.00,,,0.00,,2013-04-29 13:01:00,
2013-04-29 08:11:00,52.0,49.0,29.89,SSW,198,3.0,8.0,91,0.00,,,0.00,,2013-04-29 13:11:00,
2013-04-29 08:21:00,53.0,50.0,29.89,SW,223,1.0,7.0,90,0.00,,,0.00,,2013-04-29 13:21:00,
2013-04-29 08:31:00,54.0,51.0,29.89,SSE,167,3.0,7.0,89,0.00,,,0.00,,2013-04-29 13:31:00,
2013-04-29 08:42:00,54.0,51.0,29.89,SSE,167,3.0,7.0,89,0.00,,,0.00,,2013-04-29 13:42:00,
2013-04-29 08:52:00,55.0,52.0,29.89,South,175,2.0,5.0,88,0.00,,,0.00,,2013-04-29 13:52:00,
2013-04-29 09:02:00,56.0,52.0,29.89,SW,217,2.0,8.0,87,0.00,,,0.00,,2013-04-29 14:02:00,
2013-04-29 09:11:00,56.0,52.0,29.89,SW,217,2.0,8.0,87,0.00,,,0.00,,2013-04-29 14:11:00,
2013-04-29 09:21:00,56.0,52.0,29.88,WSW,246,3.0,8.0,86,0.00,,,0.00,,2013-04-29 14:21:00,
2013-04-29 09:32:00,57.0,53.0,29.88,South,190,3.0,7.0,86,0.00,,,0.00,,2013-04-29 14:32:00,
2013-04-29 09:42:00,57.0,53.0,29.88,South,190,3.0,7.0,86,0.00,,,0.00,,2013-04-29 14:42:00,
2013-04-29 09:52:00,58.0,53.0,29.88,South,172,4.0,10.0,83,0.00,,,0.00,,2013-04-29 14:52:00,
2013-04-29 10:01:00,59.0,53.0,29.87,SE,127,4.0,8.0,81,0.00,,,0.00,,2013-04-29 15:01:00,
2013-04-29 10:12:00,59.0,53.0,29.87,SE,127,4.0,8.0,81,0.00,,,0.00,,2013-04-29 15:12:00,
2013-04-29 10:21:00,61.0,54.0,29.87,SSE,166,4.0,8.0,79,0.00,,,0.00,,2013-04-29 15:21:00,
2013-04-29 10:33:00,61.0,54.0,29.87,SSE,166,4.0,9.0,78,0.00,,,0.00,,2013-04-29 15:33:00,
2013-04-29 10:42:00,61.0,54.0,29.87,SSE,166,4.0,9.0,78,0.00,,,0.00,,2013-04-29 15:42:00,
2013-04-29 10:53:00,62.0,54.0,29.87,South,171,5.0,10.0,75,0.00,,,0.00,,2013-04-29 15:53:00,
2013-04-29 11:02:00,63.0,54.0,29.86,SE,127,5.0,13.0,72,0.00,,,0.00,,2013-04-29 16:02:00,
2013-04-29 11:12:00,63.0,54.0,29.86,SE,127,5.0,13.0,72,0.00,,,0.00,,2013-04-29 16:12:00,
2013-04-29 11:23:00,64.0,54.0,29.86,South,174,4.0,10.0,69,0.00,,,0.00,,2013-04-29 16:23:00,
2013-04-29 11:33:00,65.0,55.0,29.86,SSW,205,6.0,15.0,69,0.00,,,0.00,,2013-04-29 16:33:00,
2013-04-29 11:42:00,65.0,55.0,29.86,SSW,205,6.0,15.0,69,0.00,,,0.00,,2013-04-29 16:42:00,
2013-04-29 11:52:00,67.0,55.0,29.86,SSE,159,8.0,13.0,66,0.00,,,0.00,,2013-04-29 16:52:00,
2013-04-29 12:02:00,67.0,54.0,29.85,SE,132,6.0,14.0,64,0.00,,,0.00,,2013-04-29 17:02:00,
2013-04-29 12:12:00,67.0,54.0,29.85,SE,132,6.0,14.0,64,0.00,,,0.00,,2013-04-29 17:12:00,
2013-04-29 12:22:00,68.0,54.0,29.85,SSE,165,8.0,17.0,60,0.00,,,0.00,,2013-04-29 17:22:00,
2013-04-29 12:32:00,68.0,54.0,29.84,SSE,163,9.0,15.0,61,0.00,,,0.00,,2013-04-29 17:32:00,
2013-04-29 12:42:00,68.0,54.0,29.84,SSE,163,9.0,15.0,61,0.00,,,0.00,,2013-04-29 17:42:00,
2013-04-29 12:52:00,69.0,54.0,29.84,SSE,168,7.0,13.0,58,0.00,,,0.00,,2013-04-29 17:52:00,
2013-04-29 13:01:00,70.0,55.0,29.83,ESE,111,7.0,16.0,58,0.00,,,0.00,,2013-04-29 18:01:00,
2013-04-29 13:13:00,70.0,55.0,29.83,ESE,111,7.0,16.0,58,0.00,,,0.00,,2013-04-29 18:13:00,
2013-04-29 13:22:00,70.0,55.0,29.82,SSW,202,7.0,17.0,59,0.00,,,0.00,,2013-04-29 18:22:00,
2013-04-29 13:32:00,70.0,53.0,29.82,South,183,10.0,19.0,54,0.00,,,0.00,,2013-04-29 18:32:00,
2013-04-29 13:42:00,70.0,53.0,29.82,South,183,10.0,19.0,54,0.00,,,0.00,,2013-04-29 18:42:00,
2013-04-29 13:52:00,71.0,54.0,29.81,SSE,150,5.0,14.0,54,0.00,,,0.00,,2013-04-29 18:52:00,
2013-04-29 14:01:00,70.0,53.0,29.80,SE,143,5.0,16.0,54,0.00,,,0.00,,2013-04-29 19:01:00,
2013-04-29 14:11:00,70.0,53.0,29.80,SE,143,5.0,16.0,54,0.00,,,0.00,,2013-04-29 19:11:00,
2013-04-29 14:21:00,71.0,53.0,29.80,SSE,157,9.0,16.0,53,0.00,,,0.00,,2013-04-29 19:21:00,
2013-04-29 14:31:00,72.0,53.0,29.79,SE,140,8.0,19.0,52,0.00,,,0.00,,2013-04-29 19:31:00,
2013-04-29 14:41:00,72.0,53.0,29.79,SE,140,8.0,19.0,52,0.00,,,0.00,,2013-04-29 19:41:00,
2013-04-29 14:52:00,72.0,53.0,29.79,SSE,159,7.0,15.0,52,0.00,,,0.00,,2013-04-29 19:52:00,
2013-04-29 15:02:00,72.0,53.0,29.79,ESE,110,8.0,17.0,52,0.00,,,0.00,,2013-04-29 20:02:00,
2013-04-29 15:11:00,72.0,53.0,29.79,ESE,110,8.0,17.0,52,0.00,,,0.00,,2013-04-29 20:11:00,
2013-04-29 15:21:00,72.0,54.0,29.78,ESE,117,7.0,16.0,53,0.00,,,0.00,,2013-04-29 20:21:00,
2013-04-29 15:32:00,72.0,54.0,29.78,SSE,151,4.0,15.0,53,0.00,,,0.00,,2013-04-29 20:32:00,
2013-04-29 15:42:00,72.0,54.0,29.78,SSE,151,4.0,15.0,53,0.00,,,0.00,,2013-04-29 20:42:00,
2013-04-29 15:52:00,73.0,54.0,29.78,SSE,160,7.0,15.0,52,0.00,,,0.00,,2013-04-29 20:52:00,
2013-04-29 16:01:00,73.0,55.0,29.77,SSW,192,8.0,17.0,53,0.00,,,0.00,,2013-04-29 21:01:00,
2013-04-29 16:11:00,73.0,55.0,29.77,SSW,192,8.0,17.0,53,0.00,,,0.00,,2013-04-29 21:11:00,
2013-04-29 16:21:00,73.0,54.0,29.76,ESE,123,8.0,16.0,52,0.00,,,0.00,,2013-04-29 21:21:00,
2013-04-29 16:33:00,73.0,56.0,29.75,SSE,159,6.0,14.0,55,0.00,,,0.00,,2013-04-29 21:33:00,
2013-04-29 16:42:00,73.0,56.0,29.75,SSE,159,6.0,14.0,55,0.00,,,0.00,,2013-04-29 21:42:00,
2013-04-29 16:53:00,73.0,55.0,29.74,ESE,117,7.0,16.0,54,0.00,,,0.00,,2013-04-29 21:53:00,
2013-04-29 17:02:00,72.0,55.0,29.74,SSE,148,7.0,15.0,56,0.00,,,0.00,,2013-04-29 22:02:00,
2013-04-29 17:13:00,72.0,55.0,29.74,SSE,148,7.0,15.0,56,0.00,,,0.00,,2013-04-29 22:13:00,
2013-04-29 17:23:00,72.0,56.0,29.73,SE,132,8.0,15.0,58,0.00,,,0.00,,2013-04-29 22:23:00,
2013-04-29 17:32:00,72.0,56.0,29.73,SE,132,8.0,15.0,58,0.00,,,0.00,,2013-04-29 22:32:00,
2013-04-29 17:42:00,72.0,56.0,29.73,SE,132,8.0,15.0,58,0.00,,,0.00,,2013-04-29 22:42:00,
2013-04-29 17:52:00,71.0,56.0,29.73,SE,140,8.0,17.0,59,0.00,,,0.00,,2013-04-29 22:52:00,
2013-04-29 18:02:00,71.0,56.0,29.73,SSE,150,8.0,14.0,60,0.00,,,0.00,,2013-04-29 23:02:00,
2013-04-29 18:11:00,71.0,56.0,29.73,SSE,150,8.0,14.0,60,0.00,,,0.00,,2013-04-29 23:11:00,
2013-04-29 18:22:00,71.0,57.0,29.73,SE,145,8.0,18.0,62,0.00,,,0.00,,2013-04-29 23:22:00,
2013-04-29 18:32:00,71.0,57.0,29.73,South,183,8.0,14.0,62,0.00,,,0.00,,2013-04-29 23:32:00,
2013-04-29 18:42:00,71.0,57.0,29.73,South,183,8.0,14.0,62,0.00,,,0.00,,2013-04-29 23:42:00,
2013-04-29 18:52:00,70.0,58.0,29.72,SE,129,9.0,20.0,65,0.00,,,0.00,,2013-04-29 23:52:00,
2013-04-29 19:01:00,70.0,58.0,29.73,SSE,150,7.0,15.0,66,0.00,,,0.00,,2013-04-30 00:01:00,
2013-04-29 19:11:00,70.0,58.0,29.73,SSE,150,7.0,15.0,66,0.00,,,0.00,,2013-04-30 00:11:00,
2013-04-29 19:21:00,69.0,57.0,29.73,South,180,3.0,15.0,66,0.00,,,0.00,,2013-04-30 00:21:00,
2013-04-29 19:32:00,69.0,58.0,29.74,South,172,7.0,20.0,67,0.00,,,0.00,,2013-04-30 00:32:00,
2013-04-29 19:41:00,69.0,58.0,29.74,South,172,7.0,20.0,67,0.00,,,0.00,,2013-04-30 00:41:00,
2013-04-29 19:52:00,69.0,58.0,29.74,SE,144,6.0,13.0,67,0.00,,,0.00,,2013-04-30 00:52:00,
2013-04-29 20:02:00,68.0,57.0,29.74,South,171,7.0,17.0,68,0.00,,,0.00,,2013-04-30 01:02:00,
2013-04-29 20:11:00,68.0,57.0,29.74,South,171,7.0,17.0,68,0.00,,,0.00,,2013-04-30 01:11:00,
2013-04-29 20:21:00,67.0,57.0,29.75,SSE,159,4.0,10.0,70,0.00,,,0.00,,2013-04-30 01:21:00,
2013-04-29 20:32:00,67.0,58.0,29.75,South,172,5.0,13.0,73,0.00,,,0.00,,2013-04-30 01:32:00,
2013-04-29 20:41:00,67.0,58.0,29.75,South,172,5.0,13.0,73,0.00,,,0.00,,2013-04-30 01:41:00,
2013-04-29 20:52:00,66.0,58.0,29.76,SSE,157,5.0,10.0,76,0.00,,,0.00,,2013-04-30 01:52:00,
2013-04-29 21:01:00,65.0,58.0,29.76,SSE,151,5.0,9.0,78,0.00,,,0.00,,2013-04-30 02:01:00,
2013-04-29 21:11:00,65.0,58.0,29.76,SSE,151,5.0,9.0,78,0.00,,,0.00,,2013-04-30 02:11:00,
2013-04-29 21:21:00,65.0,58.0,29.76,SSE,161,6.0,12.0,79,0.00,,,0.00,,2013-04-30 02:21:00,
2013-04-29 21:31:00,64.0,58.0,29.77,SE,140,4.0,11.0,80,0.00,,,0.00,,2013-04-30 02:31:00,
2013-04-29 21:41:00,64.0,58.0,29.77,SE,140,4.0,11.0,80,0.00,,,0.00,,2013-04-30 02:41:00,
2013-04-29 21:51:00,64.0,58.0,29.77,SSE,150,6.0,12.0,80,0.00,,,0.00,,2013-04-30 02:51:00,
2013-04-29 22:01:00,64.0,57.0,29.76,SSE,150,6.0,15.0,79,0.00,,,0.00,,2013-04-30 03:01:00,
2013-04-29 22:11:00,64.0,57.0,29.76,SSE,150,6.0,15.0,79,0.00,,,0.00,,2013-04-30 03:11:00,
2013-04-29 22:21:00,64.0,57.0,29.76,SSE,163,7.0,15.0,79,0.00,,,0.00,,2013-04-30 03:21:00,
2013-04-29 22:33:00,64.0,57.0,29.77,South,175,5.0,11.0,79,0.00,,,0.00,,2013-04-30 03:33:00,
2013-04-29 22:42:00,64.0,57.0,29.77,South,175,5.0,11.0,79,0.00,,,0.00,,2013-04-30 03:42:00,
2013-04-29 22:52:00,64.0,58.0,29.77,SSE,161,4.0,10.0,80,0.00,,,0.00,,2013-04-30 03:52:00,
2013-04-29 23:02:00,64.0,58.0,29.77,SSE,162,6.0,11.0,80,0.00,,,0.00,,2013-04-30 04:02:00,
2013-04-29 23:12:00,64.0,58.0,29.77,SSE,162,6.0,11.0,80,0.00,,,0.00,,2013-04-30 04:12:00,
2013-04-29 23:22:00,63.0,57.0,29.76,South,169,6.0,10.0,80,0.00,,,0.00,,2013-04-30 04:22:00,
2013-04-29 23:32:00,63.0,57.0,29.76,SE,144,7.0,14.0,80,0.00,,,0.00,,2013-04-30 04:32:00,
2013-04-29 23:42:00,63.0,57.0,29.76,SE,144,7.0,14.0,80,0.00,,,0.00,,2013-04-30 04:42:00,
2013-04-29 23:52:00,63.0,57.0,29.76,ESE,111,7.0,16.0,80,0.00,,,0.00,,2013-04-30 04:52:00,